COSMOS 1275 DEB, 42134

Orbit data source: Space-Track

COSMOS 1275 DEB, 42134 is space debris in LEO originally from a launch on Thu, 04 Jun 1981 UTC launched from the Plesetsk Missile And Space Complex (PKMTR). Debris objects in space refer to the collection of defunct objects orbiting the Earth. Examples of debris include non-operational satellites, rocket bodies, and fragments generated from explosions, collisions, or faulty payload assembly.

Loading next visibility...
Identifier
42134, 1981-053QW
Orbit
LEO
Country
Flag of CISCIS
Related business
Manufacturer
Unknown
Mission
Spacecraft
Bus & Motor
Unknown
Mass
Unknown
Launch date (UTC)
1981-06-04 (44 years ago)
Launch vehicle
Unknown
Launch site
Plesetsk Missile And Space Complex (PKMTR)
Object type
Payload
Rocket body
Debris
Shape & HBR
Unknown shape, 0.1 m
Radar Cross Section
Small (<0.1 m²)

Expand to show TLE details & history
Last TLE update: 3 days ago

TLE from 3 days ago
0 COSMOS 1275 DEB
1 42134U 81053QW  25301.46850282  .00001401  00000-0  17921-2 0  9995
2 42134  83.0096  23.0194 0178107 146.6086 214.6445 13.55908543544121
Epoch: 2025-10-28T11:14Z
TLE epoch observation values (Epoch: 2025-10-28T11:14:38.643Z)
Latitude
-0.00006°
Longitude
177.30282°
Altitude
1,163.093 km
Speed
7.218 km/s
True Right ascension
01h 32m 04s
True Declination
0° 00' 00"
Sunlit
Object was in full shadow at epoch
Visualization orbit readout
Latitude
Unknown
Longitude
Unknown
Altitude
Unknown
Speed
Unknown
Apparent Right ascension
Unknown
Apparent Declination
Unknown
Sunlit
N/A
Visualization observer readout
Local Sidereal Time
06:05:44
Azimuth
Unknown
Elevation
Unknown
Doppler factor
Unknown
Orbital elements
Apogee altitude
1,180.031 km
Perigee altitude
915.51 km
Semi-major axis
7,425.907 km
Eccentricity
0.01781
Inclination
83.0096°
RAAN
23.0194°
Arg. of periapsis
146.6086°
True anomaly
213.50521°
Mean anomaly
214.6445°
Eccentric anomaly
214.07278°
Mean motion
3.39171 °/min
Orbital period
106.14 mins
BSTAR
0.0017921
Loading maneuver chart data...
Computing Atmospheric mass density...

Documentation

Showing up to 5 results
|